Wind_Speed
33 34 34 35 36 37 38 38 37 36 33 30 28 26 25 23 21 20 19 19 19 19 21 23 26 29 32 35 38 40 40 40 40 40 38 37 36 36 36 37 37 37 36
32 34 35 36 37 38 39 39 38 36 32 29 27 25 22 19 17 16 16 16 17 18 19 21 24 26 29 32 35 38 40 41 41 41 40 38 37 36 35 36 37 37 37
32 34 36 38 39 40 40 39 38 35 31 28 26 23 19 17 16 16 17 17 18 19 19 21 23 25 27 29 32 35 37 39 41 42 41 40 37 36 35 35 36 36 36
34 36 38 39 39 39 38 37 35 33 31 28 25 23 21 20 19 20 21 21 22 22 22 23 24 26 27 29 30 31 34 36 39 40 41 40 39 38 36 36 35 36 37
33 35 37 37 37 36 35 36 36 34 32 29 27 25 24 24 24 25 25 26 26 25 25 25 25 26 27 28 29 30 31 33 35 37 39 40 39 38 37 36 36 36 37
29 31 32 34 35 35 36 36 35 34 33 31 30 29 28 29 29 29 29 28 28 27 26 25 26 27 28 29 29 29 29 30 32 34 36 37 38 38 37 36 36 37 36
26 29 31 33 35 36 36 36 35 35 35 34 33 32 32 32 32 32 31 30 29 28 27 26 26 27 28 29 29 29 29 29 30 31 33 35 36 37 37 36 36 36 36
28 30 33 35 36 37 36 37 37 38 38 38 37 36 35 35 35 34 34 32 31 29 28 27 27 27 27 28 29 28 28 28 28 29 31 32 33 35 35 35 35 35 35
30 32 33 35 37 38 39 39 41 42 42 42 41 40 39 39 38 37 36 34 32 31 29 28 27 26 27 27 28 28 28 28 27 27 28 30 31 33 34 35 35 35 35
36 37 38 39 40 41 43 44 45 46 46 46 46 44 43 42 41 40 38 36 34 32 30 29 27 26 26 27 27 28 28 27 27 26 26 27 29 30 32 33 34 34 35
40 42 43 44 45 46 47 48 49 50 50 51 50 50 49 48 46 44 42 39 37 34 32 30 28 27 26 27 27 28 28 27 27 26 26 26 26 28 30 31 32 33 34
43 44 46 48 49 50 52 53 53 55 55 56 56 56 56 54 52 50 47 43 40 37 34 31 29 28 27 27 27 28 28 28 27 26 25 25 24 25 27 29 31 32 33
45 47 49 51 53 54 55 57 58 60 61 62 62 62 62 60 58 55 52 49 45 42 38 34 32 30 29 28 28 28 28 28 27 26 25 24 24 24 25 26 28 29 30
48 51 53 54 56 58 60 61 63 65 66 67 68 68 68 67 65 63 59 55 52 48 43 39 36 34 32 30 29 29 29 28 27 26 25 23 22 23 24 24 25 26 27
55 57 59 61 63 65 67 69 70 71 73 73 74 74 75 74 72 69 66 62 58 53 48 44 41 38 35 33 31 31 30 28 27 25 24 22 21 21 21 21 23 24 25
65 67 69 71 73 75 76 77 78 79 80 80 80 80 81 81 78 74 70 67 63 59 55 50 47 43 40 37 34 33 32 29 27 26 24 22 21 20 21 22 24 25 25
75 77 80 81 82 82 81 81 81 82 83 84 84 85 85 85 84 81 78 75 71 67 61 55 52 48 45 41 37 35 34 31 28 26 24 23 21 21 21 22 23 25 25
80 79 77 73 68 64 61 61 62 63 66 69 72 75 79 80 81 81 80 78 76 72 67 62 57 53 49 45 40 38 35 32 29 26 24 22 22 20 20 21 22 24 24
67 61 54 48 44 43 43 43 43 44 45 47 49 52 56 60 64 67 69 71 72 71 68 63 58 55 50 46 42 39 37 33 30 27 24 22 21 20 19 20 20 20 20
48 44 41 42 44 44 44 44 43 42 41 41 41 40 41 43 46 49 53 56 59 62 62 60 56 53 49 45 42 40 37 34 30 27 24 21 21 21 20 21 21 20 19
42 43 44 45 46 46 47 46 45 43 43 42 40 38 36 35 34 35 37 40 44 48 53 54 52 50 48 45 43 40 37 34 30 27 24 22 21 21 20 21 21 20 19
44 45 46 46 47 48 48 46 45 45 45 44 41 38 35 33 31 29 28 29 31 35 41 47 50 49 46 45 43 40 37 34 30 27 25 22 21 21 21 20 20 19 18
46 47 48 49 49 49 49 48 47 46 46 44 42 39 36 34 31 28 26 25 26 28 33 43 50 49 46 45 43 39 37 34 30 28 25 23 23 22 22 21 20 19 18
48 50 51 51 50 50 50 50 49 48 47 44 42 41 38 34 31 28 27 25 24 23 27 39 47 50 45 43 42 39 36 32 29 27 25 24 24 24 23 22 21 20 19
51 52 52 52 52 50 49 48 47 46 45 44 43 41 37 34 32 29 27 26 25 24 25 35 45 44 42 42 40 37 34 30 28 26 25 25 25 25 24 23 22 21 20
53 53 54 53 52 50 48 46 46 45 43 41 39 36 36 34 32 30 28 26 25 25 26 32 41 43 42 41 39 37 34 32 29 27 26 26 26 26 25 24 23 21 20
Wind_Direction
267 269 273 277 281 284 287 290 291 294 294 291 290 290 286 282 281 280 284 288 292 296 299 301 299 295 291 286 282 278 276 275 274 273 272 270 269 269 268 267 265 264 263
265 268 272 276 280 282 285 287 290 292 291 290 291 289 286 283 282 284 287 291 296 301 305 308 308 305 299 293 286 280 276 273 272 271 271 270 269 268 266 265 264 264 262
267 269 272 275 278 281 284 287 290 291 291 291 291 289 287 284 285 287 288 292 298 302 307 311 313 314 310 304 296 287 279 274 271 269 268 268 268 267 265 264 264 264 263
266 268 270 273 275 278 280 282 286 289 289 290 290 288 286 282 281 283 284 288 292 297 302 307 312 315 315 311 304 296 287 278 272 269 268 267 266 265 265 264 263 264 264
265 265 267 270 272 274 277 281 285 286 288 288 287 285 281 279 279 279 280 284 287 292 297 301 307 313 316 316 312 306 296 286 277 271 268 266 265 265 263 263 262 262 263
273 270 268 268 268 271 276 280 284 286 287 287 285 282 279 276 276 277 278 280 284 288 294 300 304 310 314 317 315 311 304 294 284 276 271 267 265 263 262 261 261 262 262
278 277 274 273 275 277 280 281 283 284 284 284 282 279 277 275 275 275 277 279 283 287 292 297 303 308 313 316 316 313 310 301 291 282 275 269 265 262 261 260 260 262 262
280 278 277 277 277 278 280 280 280 280 281 280 279 277 275 274 275 276 278 280 283 287 290 294 300 305 309 314 316 315 313 307 297 288 279 272 267 263 260 259 259 261 262
282 280 279 278 278 277 277 277 277 277 277 277 276 275 274 274 275 276 278 281 283 286 289 293 297 302 307 311 315 316 314 310 302 294 284 276 269 264 260 259 259 260 260
284 282 280 278 277 276 276 275 275 275 275 275 275 275 275 275 275 276 278 280 282 284 286 290 294 299 303 308 312 315 315 312 306 299 289 279 270 264 260 258 258 259 259
281 281 280 279 277 276 275 274 274 275 275 275 275 276 276 276 276 277 277 278 280 282 284 287 290 295 299 304 308 312 313 312 308 302 293 284 275 266 260 257 256 256 255
281 280 279 278 277 277 276 275 274 274 274 274 275 275 276 276 276 276 276 277 278 279 281 284 287 291 295 299 303 306 309 308 306 302 293 285 278 268 260 255 252 252 253
285 284 282 280 279 277 276 275 274 274 273 273 274 274 274 274 274 274 274 275 275 275 277 280 283 287 291 295 298 301 304 304 304 301 293 286 277 268 260 254 251 249 249
290 288 286 284 282 280 278 276 275 274 273 272 272 272 272 272 272 272 271 271 271 271 273 276 279 283 287 290 293 295 298 299 299 297 292 285 276 267 260 253 249 248 245
293 291 288 286 283 281 279 276 274 272 271 269 269 269 269 268 268 267 267 267 267 267 269 272 275 279 282 285 288 290 291 293 293 292 289 283 275 268 258 252 248 246 244
295 292 289 286 283 280 278 275 273 271 269 267 266 265 265 263 263 263 262 262 262 264 265 268 271 273 277 279 281 283 284 285 285 284 282 278 272 265 256 253 250 245 239
296 294 291 289 287 285 283 280 278 275 272 270 268 266 265 264 264 264 262 262 262 263 263 264 266 268 272 273 274 276 275 277 277 276 275 271 267 265 258 253 247 240 234
299 298 297 296 295 294 292 289 286 283 280 277 274 271 269 268 266 265 264 263 263 262 261 261 262 263 265 266 266 268 267 268 269 268 267 265 261 257 255 249 243 237 233
304 304 304 305 305 304 302 301 299 297 293 289 284 280 277 273 271 268 265 263 261 259 257 256 255 256 257 258 258 259 259 260 260 259 259 258 253 248 247 243 239 237 234
309 308 307 306 305 305 303 302 300 299 298 296 293 289 285 281 276 271 266 262 259 255 252 249 247 246 247 248 249 250 250 251 251 251 251 250 245 241 241 239 235 231 229
311 309 307 305 304 303 301 300 298 296 296 294 293 291 287 285 280 274 266 260 255 249 243 237 233 233 236 238 239 240 240 241 242 242 242 241 238 235 232 231 228 224 221
312 310 308 306 304 302 300 298 296 293 291 290 288 286 284 281 277 273 266 260 251 243 234 224 217 218 224 229 232 232 232 233 233 233 234 233 231 228 225 223 220 214 210
312 310 309 308 306 303 300 298 294 291 289 287 283 280 278 275 271 266 261 257 252 243 229 215 207 204 210 218 223 224 225 225 225 226 227 226 224 219 216 213 209 205 203
314 312 310 308 307 303 300 298 295 291 287 283 279 275 271 268 264 260 256 254 250 242 227 212 202 198 201 208 215 217 218 218 219 220 220 218 214 209 207 204 202 200 198
317 314 312 310 308 305 301 299 296 291 286 281 277 271 264 259 254 252 250 249 244 236 226 213 203 197 196 199 207 211 209 210 211 213 212 210 208 204 201 198 196 195 194
320 318 315 312 309 307 304 300 296 292 287 281 275 266 257 250 245 243 242 241 237 233 225 219 208 197 192 192 196 198 198 200 203 205 205 203 201 198 195 194 194 195 195
Height
5878 5876 5875 5873 5870 5868 5865 5863 5860 5858 5856 5853 5851 5849 5847 5845 5844 5842 5841 5839 5838 5836 5834 5831 5829 5826 5823 5820 5817 5815 5814 5813 5812 5811 5812 5812 5813 5813 5814 5814 5815 5816 5817
5872 5870 5868 5866 5863 5860 5858 5855 5853 5851 5848 5846 5845 5842 5840 5839 5837 5836 5835 5833 5832 5830 5828 5825 5822 5818 5815 5812 5808 5806 5805 5804 5803 5802 5802 5803 5804 5804 5805 5805 5806 5807 5808
5865 5863 5860 5857 5855 5852 5849 5847 5846 5844 5841 5839 5837 5836 5834 5833 5831 5830 5829 5827 5826 5824 5821 5818 5815 5811 5807 5804 5800 5797 5795 5794 5793 5792 5792 5793 5795 5795 5796 5797 5798 5798 5799
5857 5854 5851 5848 5846 5843 5841 5839 5838 5836 5834 5832 5830 5829 5828 5826 5825 5824 5822 5821 5819 5817 5814 5811 5808 5804 5800 5796 5792 5788 5785 5783 5783 5782 5782 5783 5785 5786 5787 5788 5789 5790 5790
5847 5844 5841 5839 5837 5835 5833 5831 5830 5828 5827 5825 5823 5822 5821 5820 5819 5818 5816 5814 5812 5810 5807 5804 5800 5797 5793 5788 5784 5780 5777 5774 5772 5772 5772 5773 5775 5776 5778 5779 5780 5781 5781
5839 5836 5832 5830 5827 5826 5825 5823 5822 5820 5819 5817 5816 5815 5813 5812 5811 5810 5809 5807 5805 5802 5799 5796 5793 5789 5785 5781 5777 5772 5769 5765 5763 5762 5762 5763 5765 5766 5768 5770 5771 5771 5773
5833 5830 5827 5823 5822 5820 5818 5816 5814 5812 5811 5809 5808 5807 5805 5804 5803 5802 5801 5799 5797 5794 5792 5789 5785 5782 5778 5774 5770 5765 5761 5758 5755 5753 5753 5753 5755 5756 5758 5760 5761 5762 5764
5827 5824 5821 5818 5815 5813 5810 5808 5806 5804 5802 5801 5800 5799 5797 5796 5795 5793 5792 5790 5788 5786 5783 5780 5777 5774 5771 5767 5763 5758 5754 5751 5748 5745 5744 5744 5745 5747 5748 5750 5752 5753 5755
5819 5817 5814 5811 5808 5805 5802 5800 5797 5795 5793 5791 5790 5789 5788 5786 5785 5783 5782 5780 5778 5776 5774 5772 5769 5766 5763 5760 5756 5752 5748 5744 5741 5738 5737 5736 5736 5737 5739 5741 5743 5745 5746
5810 5807 5804 5801 5798 5795 5792 5789 5787 5784 5782 5780 5778 5777 5776 5775 5774 5772 5771 5770 5768 5766 5764 5763 5760 5758 5755 5752 5748 5745 5741 5737 5734 5732 5729 5728 5728 5729 5730 5732 5734 5735 5737
5800 5796 5792 5789 5786 5783 5780 5777 5774 5771 5769 5766 5764 5763 5762 5761 5760 5759 5759 5758 5757 5756 5754 5753 5751 5748 5746 5744 5741 5738 5734 5731 5728 5725 5723 5721 5720 5720 5722 5723 5725 5726 5728
5789 5784 5780 5776 5772 5768 5765 5762 5759 5756 5753 5751 5749 5747 5746 5745 5745 5745 5745 5744 5744 5744 5743 5742 5740 5739 5737 5735 5733 5730 5727 5725 5722 5719 5716 5715 5713 5713 5714 5715 5716 5718 5719
5776 5771 5767 5762 5757 5753 5749 5745 5742 5739 5736 5733 5731 5729 5728 5727 5727 5728 5728 5729 5730 5730 5731 5731 5730 5729 5727 5726 5724 5722 5720 5718 5715 5712 5710 5708 5706 5706 5706 5707 5709 5710 5712
5761 5756 5750 5745 5740 5735 5731 5727 5723 5719 5716 5713 5711 5709 5708 5707 5708 5709 5710 5712 5714 5715 5717 5718 5718 5718 5717 5717 5716 5714 5712 5711 5708 5706 5704 5702 5700 5699 5699 5700 5701 5703 5705
5745 5738 5732 5726 5721 5715 5710 5705 5701 5697 5694 5691 5689 5687 5686 5686 5687 5688 5690 5693 5695 5698 5701 5703 5705 5706 5706 5707 5706 5706 5704 5703 5701 5699 5697 5696 5694 5693 5693 5694 5695 5697 5698
5726 5718 5710 5703 5697 5690 5685 5680 5675 5671 5668 5666 5664 5663 5662 5662 5663 5665 5668 5671 5675 5680 5684 5687 5690 5692 5694 5696 5696 5696 5696 5695 5694 5692 5691 5689 5688 5688 5688 5688 5690 5691 5693
5703 5693 5684 5676 5668 5661 5655 5650 5646 5642 5639 5637 5636 5634 5634 5635 5637 5639 5643 5647 5653 5658 5664 5670 5674 5677 5681 5683 5685 5686 5687 5686 5686 5685 5684 5683 5682 5682 5682 5683 5684 5686 5688
5676 5666 5656 5648 5640 5633 5627 5622 5618 5614 5610 5608 5607 5606 5605 5607 5609 5612 5616 5621 5627 5635 5643 5650 5657 5661 5665 5670 5672 5675 5676 5677 5678 5678 5677 5677 5676 5677 5678 5678 5679 5681 5683
5652 5643 5635 5628 5622 5616 5611 5606 5601 5596 5592 5589 5586 5584 5582 5582 5584 5586 5589 5595 5602 5610 5619 5628 5637 5644 5650 5655 5659 5663 5665 5667 5669 5670 5670 5670 5670 5671 5672 5674 5675 5677 5679
5635 5628 5622 5616 5610 5604 5598 5593 5588 5583 5579 5575 5571 5569 5566 5565 5564 5564 5567 5571 5577 5585 5595 5606 5617 5626 5634 5640 5645 5651 5654 5657 5660 5661 5662 5663 5664 5666 5667 5669 5671 5673 5675
5623 5617 5610 5603 5597 5591 5585 5579 5575 5570 5566 5562 5559 5556 5554 5552 5550 5549 5550 5552 5556 5563 5572 5584 5597 5608 5618 5625 5632 5638 5643 5647 5650 5653 5655 5656 5658 5660 5663 5665 5667 5669 5672
5612 5604 5597 5590 5583 5576 5570 5564 5559 5555 5551 5548 5545 5544 5542 5541 5540 5539 5540 5541 5543 5547 5554 5565 5578 5591 5602 5611 5619 5626 5633 5637 5642 5645 5648 5650 5653 5655 5658 5661 5663 5666 5669
5599 5591 5583 5576 5569 5561 5554 5548 5543 5538 5535 5532 5531 5530 5529 5529 5529 5529 5531 5532 5533 5536 5541 5550 5562 5575 5587 5597 5607 5615 5622 5628 5633 5637 5641 5644 5647 5650 5654 5657 5660 5663 5667
5585 5577 5568 5560 5552 5544 5536 5530 5525 5520 5517 5515 5514 5514 5514 5516 5517 5519 5521 5523 5526 5529 5533 5540 5550 5562 5574 5585 5595 5604 5612 5620 5625 5630 5634 5638 5641 5646 5650 5653 5657 5661 5664
5572 5562 5552 5543 5535 5527 5519 5512 5506 5501 5498 5496 5495 5496 5498 5502 5505 5509 5512 5515 5519 5522 5526 5532 5540 5551 5563 5576 5587 5597 5606 5613 5619 5624 5629 5633 5637 5642 5646 5651 5655 5659 5662
5558 5547 5537 5527 5517 5509 5501 5494 5488 5482 5479 5477 5477 5479 5483 5488 5493 5498 5503 5507 5512 5516 5521 5526 5533 5544 5556 5567 5579 5589 5598 5605 5612 5618 5624 5629 5634 5639 5644 5648 5653 5657 5660